Погода в Сан-Пикс

Канада     50°53′05″N   119°52′53″W
темп.,
°C
ветер,
м/с
пор.,
м/с
влажн.,
%
обл.,
%
осадки,
мм/ч
давл.,
гПа
погр.,
м
16 июня, ср
ср1623:00+7ю229251 2.1 101923
02:00+4ююз22935 0.4 102332
05:00+3ююз2194100 0.6 102526
08:00+8ю12845 0.4 1025384
11:00+13ююз236010 0.9 10231241
14:00+18юз253155 0.4 10212671
17:00+19юз252461 0.4 10182947
20:00+15ююз224531 0.0 101819
17 июня, чт
чт1723:00+9ю114936 0.0 101910
02:00+7юз11565 0.0 102010
05:00+5ююз11675 0.0 102110
08:00+12з114877 0.0 1020341
11:00+18юз12325 0.0 10181379
14:00+21юз22263 0.0 10162281
17:00+21юз122799 0.0 10142067
20:00+16вюв1148100 0.0 101411
18 июня, пт
пт1823:00+13юв2252100 0.0 101523
02:00+10ююв226194 0.0 101520
05:00+9ю2265100 0.0 101622
08:00+14юз1247100 0.0 1015361
11:00+20юз1235100 0.0 10141546
14:00+21юз2232100 0.0 10122183
17:00+22з1331100 0.0 10102393
20:00+17с1157100 0.0 101019
19 июня, сб
сб1923:00+13сз1162100 0.0 101111
02:00+11юз1167100 0.0 101110
05:00+10юз1169100 0.0 101215
08:00+14з126199 0.0 1011277
11:00+15ссз2254100 0.0 10121378
14:00+10зсз2396100 0.9 1014228
17:00+9зсз2494100 2.8 1016452
20:00+8зсз2396100 0.3 1017187
20 июня, вс
вс2023:00+7с259789 0.8 1019309
02:00+5ссз229939 0.0 102355
05:00+3ссз119927 0.0 102534
08:00+8с12872 0.0 1025289
11:00+17ссз11470 0.0 1022890
14:00+21ссз22330 0.0 10201529
17:00+22с12305 0.0 10181472
20:00+18вюв0152100 0.0 101711